TimeCDT,TemperatureF,Dew PointF,Humidity,Sea Level PressureIn,VisibilityMPH,Wind Direction,Wind SpeedMPH,Gust SpeedMPH,PrecipitationIn,Events,Conditions,WindDirDegrees,DateUTC
12:53 AM,73.9,57.9,57,29.68,10.0,SSE,15.0,21.9,N/A,,Clear,160,2013-09-27 05:53:00
1:53 AM,73.9,57.0,55,29.68,10.0,SSE,15.0,24.2,N/A,,Clear,150,2013-09-27 06:53:00
2:53 AM,72.0,57.0,59,29.68,10.0,SSE,10.4,-,N/A,,Clear,160,2013-09-27 07:53:00
3:53 AM,72.0,55.9,57,29.67,10.0,South,12.7,-,N/A,,Clear,170,2013-09-27 08:53:00
4:53 AM,72.0,55.0,55,29.67,10.0,South,12.7,21.9,N/A,,Scattered Clouds,170,2013-09-27 09:53:00
5:53 AM,72.0,54.0,53,29.67,10.0,South,12.7,21.9,N/A,,Clear,170,2013-09-27 10:53:00
6:53 AM,72.0,53.1,51,29.68,10.0,South,16.1,21.9,N/A,,Partly Cloudy,170,2013-09-27 11:53:00
7:53 AM,72.0,52.0,49,29.69,10.0,South,13.8,21.9,N/A,,Clear,170,2013-09-27 12:53:00
8:53 AM,72.0,52.0,49,29.69,10.0,South,17.3,24.2,N/A,,Clear,170,2013-09-27 13:53:00
9:53 AM,73.9,52.0,46,29.70,10.0,South,17.3,25.3,N/A,,Clear,180,2013-09-27 14:53:00
10:53 AM,78.1,52.0,40,29.70,10.0,South,17.3,25.3,N/A,,Clear,180,2013-09-27 15:53:00
11:53 AM,82.9,52.0,34,29.70,10.0,South,13.8,26.5,N/A,,Clear,170,2013-09-27 16:53:00
12:53 PM,84.9,52.0,32,29.70,10.0,South,15.0,28.8,N/A,,Clear,180,2013-09-27 17:53:00
1:53 PM,87.1,52.0,30,29.68,10.0,South,12.7,24.2,N/A,,Clear,190,2013-09-27 18:53:00
2:53 PM,87.1,53.1,31,29.67,10.0,SSE,18.4,28.8,N/A,,Clear,160,2013-09-27 19:53:00
3:53 PM,89.1,53.1,29,29.65,10.0,SSE,18.4,25.3,N/A,,Clear,160,2013-09-27 20:53:00
4:53 PM,90.0,52.0,27,29.64,10.0,South,18.4,29.9,N/A,,Clear,180,2013-09-27 21:53:00
5:53 PM,86.0,55.9,36,29.63,10.0,SSE,20.7,28.8,N/A,,Clear,150,2013-09-27 22:53:00
6:53 PM,82.9,57.0,41,29.65,10.0,SSE,17.3,27.6,N/A,,Partly Cloudy,160,2013-09-27 23:53:00
7:53 PM,80.1,57.0,45,29.67,10.0,SSE,15.0,23.0,N/A,,Partly Cloudy,160,2013-09-28 00:53:00
8:53 PM,78.1,55.9,46,29.65,10.0,SSE,13.8,19.6,0.00,,Scattered Clouds,160,2013-09-28 01:53:00
9:53 PM,77.0,57.0,50,29.63,10.0,SSE,20.7,29.9,N/A,,Scattered Clouds,150,2013-09-28 02:53:00
10:53 PM,75.9,55.9,50,29.62,10.0,South,23.0,34.5,0.00,,Partly Cloudy,170,2013-09-28 03:53:00
11:53 PM,75.0,55.0,50,29.63,10.0,SSW,11.5,25.3,N/A,,Mostly Cloudy,200,2013-09-28 04:53:00